Weather History for LXGB - November, 2012

Change the Weather History Date:

Thursday, November 29, 2012

  Actual Average Record
Temperature  
Mean Temperature 53 °F -  
Max Temperature 58 °F 60 °F 66 °F (1997)
Min Temperature 48 °F 52 °F 48 °F (2012)
Degree Days  
Heating Degree Days 12    
Growing Degree Days 3 (Base 50)    
Moisture  
Dew Point 41 °F    
Average Humidity 61    
Maximum Humidity 76    
Minimum Humidity 40    
Precipitation  
Precipitation 0.00 in - - ()
Sea Level Pressure  
Sea Level Pressure 29.97 in    
Wind  
Wind Speed 13 mph ()    
Max Wind Speed 20 mph    
Max Gust Speed 29 mph    
Visibility 6.8 miles    
Events      
Averages and records for this station are not official NWS values.
T = Trace of Precipitation, MM = Missing Value Source: Averaged Metar Reports

Daily Weather History Graph

Daily Weather History Graph

Search for Another Location

Airport or City:

Trip Planner

Search our weather history database for the weather conditions in past years. The results will help you decide how hot, cold, wet, or windy it might be!

Date:

Astronomy

Nov. 29, 2012 Rise Set
Actual Time 8:12 AM CET 6:07 PM CET
Civil Twilight 7:44 AM CET 6:35 PM CET
Nautical Twilight 7:12 AM CET 7:07 PM CET
Astronomical Twilight 6:41 AM CET 7:37 PM CET
Moon 6:58 PM CET (11/29) 8:47 AM CET (11/29)
Length of Visible Light 10h 51m
Length of Day
9h 54m
Full, 99% of the Moon is Illuminated
Nov 29
Full
Dec 6
Last Quarter
Dec 13
New
Dec 20
First Quarter
Dec 28
Full

Hourly Weather History & Observations

Time (CET) Temp. Dew Point Humidity Pressure Visibility Wind Dir Wind Speed Gust Speed Precip Events Conditions
12:50 AM 54 °F 43 °F 57% 29.97 in 11 mi WNW 19.6 mph - -  
12:50 AM 53.6 °F 42.8 °F 67% 29.95 in 6.2 mi WNW 19.6 mph - N/A   Unknown
1:50 AM 53.6 °F 44.6 °F 72% 29.95 in 6.2 mi West 19.6 mph - N/A   Unknown
2:50 AM 51.8 °F 42.8 °F 71% 29.95 in 6.2 mi WNW 12.7 mph - N/A   Unknown
3:50 AM 51.8 °F 42.8 °F 71% 29.95 in 6.2 mi West 11.5 mph - N/A   Unknown
4:50 AM 51.8 °F 42.8 °F 71% 29.95 in 6.2 mi WNW 10.4 mph - N/A   Unknown
5:50 AM 50.0 °F 42.8 °F 76% 29.95 in 6.2 mi WNW 11.5 mph - N/A   Unknown
6:50 AM 50 °F 43 °F 69% 29.96 in 16 mi WNW 11.5 mph - -   Scattered Clouds
6:50 AM 50.0 °F 42.8 °F 76% 29.95 in 6.2 mi WNW 11.5 mph - N/A   Partly Cloudy
7:50 AM 50.0 °F 42.8 °F 76% 29.95 in 6.2 mi WNW 11.5 mph - N/A   Partly Cloudy
8:50 AM 50.0 °F 42.8 °F 76% 29.98 in 6.2 mi West 12.7 mph - N/A   Partly Cloudy
9:50 AM 51.8 °F 41.0 °F 67% 29.98 in 6.2 mi WNW 15.0 mph - N/A   Partly Cloudy
10:50 AM 53.6 °F 42.8 °F 67% 30.01 in 6.2 mi WNW 6.9 mph - N/A   Partly Cloudy
11:50 AM 55.4 °F 41.0 °F 58% 30.01 in 6.2 mi WNW 12.7 mph - N/A   Partly Cloudy
12:50 PM 57 °F 39 °F 40% 29.99 in 25 mi WNW 13.8 mph - -   Scattered Clouds
12:50 PM 57.2 °F 39.2 °F 51% 29.98 in 6.2 mi WNW 13.8 mph - N/A   Partly Cloudy
1:50 PM 59.0 °F 39.2 °F 48% 29.95 in 6.2 mi WNW 15.0 mph - N/A   Partly Cloudy
2:50 PM 59.0 °F 39.2 °F 48% 29.95 in 6.2 mi WNW 17.3 mph 28.8 mph N/A   Partly Cloudy
3:50 PM 57.2 °F 41.0 °F 55% 29.95 in 6.2 mi WNW 16.1 mph - N/A   Partly Cloudy
4:50 PM 57.2 °F 39.2 °F 51% 29.95 in 6.2 mi West 16.1 mph - N/A   Partly Cloudy
5:50 PM 55.4 °F 39.2 °F 54% 29.95 in 6.2 mi WNW 13.8 mph - N/A   Partly Cloudy
6:50 PM 55 °F 39 °F 43% 29.98 in 25 mi West 17.3 mph - -   Scattered Clouds
6:50 PM 55.4 °F 39.2 °F 54% 29.98 in 6.2 mi West 17.3 mph - N/A   Partly Cloudy
7:50 PM 53.6 °F 37.4 °F 54% 29.98 in 6.2 mi West 16.1 mph - N/A   Unknown
8:50 PM 53.6 °F 41.0 °F 62% 29.98 in 6.2 mi West 9.2 mph - N/A   Partly Cloudy
9:50 PM 53.6 °F 41.0 °F 62% 29.98 in 6.2 mi West 11.5 mph - N/A   Partly Cloudy
10:50 PM 53.6 °F 41.0 °F 62% 29.98 in 6.2 mi West 11.5 mph - N/A   Partly Cloudy
11:50 PM 51.8 °F 39.2 °F 62% 29.98 in 6.2 mi West 18.4 mph - N/A   Unknown